Terminal Aerodrome Forecast
Issued by NWS

Home | Current Version | Previous Version | Graphics & Text | Print | Product List | Glossary On
Versions: 1 2 3 4 5 6 7 8 9 10 11 12 13 14
000
FTUS43 KBIS 190500
TAFDIK
TAF
KDIK 190520Z 1906/2006 21011KT P6SM VCSH BKN100
     FM191000 26009KT P6SM SCT150 SCT220
     FM191300 29013G18KT P6SM FEW140
     FM191700 29019G28KT P6SM FEW080=

USA.gov is the U.S. government's official web portal to all federal, state and local government web resources and services.